SKYSAT-A 1 39418U 13066C 26255.08299156 .00002349 00000+0 13455-3 0 9999 2 39418 97.3733 301.6959 0021599 18.0720 342.1274 15.13388300701627 SKYSAT-B 1 40072U 14037D 26254.86407110 .00000961 00000+0 11086-3 0 9998 2 40072 98.3937 218.8236 0005759 11.0569 349.0772 14.88210501658856 SKYSAT-C1 1 41601U 16040C 26255.00283115 .00006615 00000+0 18145-3 0 9992 2 41601 96.9514 282.0704 0004249 80.3328 279.8397 15.37570309571204 SKYSAT-C4 1 41771U 16058B 26255.04217447 .00012967 00000+0 22406-3 0 9990 2 41771 96.9155 273.3185 0000496 44.1443 315.9850 15.51094270558929 SKYSAT-C5 1 41772U 16058C 26255.04842749 .00005025 00000+0 15421-3 0 9996 2 41772 97.0397 291.7347 0001978 24.1135 336.0201 15.34168806557062 SKYSAT-C2 1 41773U 16058D 26255.03204933 .00008544 00000+0 19037-3 0 9999 2 41773 97.0145 273.9556 0005067 93.4465 266.7364 15.43818551558447 SKYSAT-C3 1 41774U 16058E 26255.05613226 .00019279 00000+0 27757-3 0 9996 2 41774 96.8952 282.7486 0002076 75.2432 284.9054 15.56070915559605 SKYSAT-C11 1 42987U 17068A 26255.15899265 .00030571 00000+0 34443-3 0 9993 2 42987 97.4452 48.1330 0001054 66.3428 293.7940 15.62501942496807 SKYSAT-C10 1 42988U 17068B 26254.90849454 .00007380 00000+0 21278-3 0 9995 2 42988 97.4623 32.7512 0001401 86.3370 273.8034 15.36017756495665 SKYSAT-C9 1 42989U 17068C 26254.97111015 .00011069 00000+0 24895-3 0 9995 2 42989 97.4544 34.6132 0008004 174.2238 185.9104 15.43466935496132 SKYSAT-C8 1 42990U 17068D 26254.93980056 .00008537 00000+0 22699-3 0 9998 2 42990 97.4641 32.9218 0001593 90.6883 269.4544 15.38491765495645 SKYSAT-C7 1 42991U 17068E 26254.93643911 .00008678 00000+0 23095-3 0 9992 2 42991 97.4655 33.9143 0006418 145.4966 214.6696 15.38438048495703 SKYSAT-C6 1 42992U 17068F 26255.15689170 .00006678 00000+0 20520-3 0 9993 2 42992 97.4704 33.6785 0001511 138.2606 221.8752 15.34045380495654 SKYSAT-C12 1 43797U 18099AR 26255.04285715 .00013559 00000+0 23090-3 0 9998 2 43797 96.9236 274.9298 0003973 171.9311 188.2007 15.51489585435316 FLOCK 4Q-16 1 58271U 23174R 26254.81400800 .00021982 00000+0 35561-3 0 9994 2 58271 97.3780 345.1185 0005835 205.3545 154.7422 15.52829603159002 FLOCK 4Q-11 1 58273U 23174T 26255.05685034 .00065607 00000+0 93794-3 0 9991 2 58273 97.3813 346.1597 0006532 205.3563 154.7372 15.55997109159064 PELICAN-1 1 58296U 23174AS 26255.09705117 .00004751 00000+0 43177-4 0 9999 2 58296 97.4022 0.6573 0001737 29.9403 330.1957 15.68531144159812 FLOCK 4Q-2 1 58320U 23174BS 26255.20373928 .00023391 00000+0 37056-3 0 9990 2 58320 97.3828 345.9468 0005748 167.5448 192.5949 15.53400613159096 FLOCK 4Q-9 1 58322U 23174BU 26255.06538446 .00027463 00000+0 42135-3 0 9992 2 58322 97.3820 345.9784 0006435 170.9817 189.1553 15.54251308159069 FLOCK 4Q-4 1 58327U 23174BZ 26255.20909499 .00020782 00000+0 34274-3 0 9995 2 58327 97.3787 345.0603 0004724 192.7268 167.3866 15.52309334159042 FLOCK 4Q-13 1 58328U 23174CA 26255.20711991 .00022153 00000+0 32552-3 0 9995 2 58328 97.3990 348.7975 0005879 176.3875 183.7423 15.55482183159188 FLOCK 4BE-18 1 60480U 24149N 26255.03499413 .00032516 00000+0 69518-3 0 9999 2 60480 97.3687 339.8173 0002368 303.6542 56.4480 15.44761924115700 FLOCK 4BE-7 1 60481U 24149P 26255.17226087 .00028308 00000+0 62438-3 0 9998 2 60481 97.3719 339.1774 0001440 319.3195 40.7946 15.43867507115655 FLOCK 4BE-36 1 60486U 24149U 26254.80189227 .00034389 00000+0 67531-3 0 9991 2 60486 97.3705 340.4753 0002231 297.3747 62.7276 15.47241122115725 FLOCK 4BE-25 1 60487U 24149V 26254.77315633 .00025977 00000+0 62795-3 0 9990 2 60487 97.3758 338.6202 0001095 332.2644 27.8544 15.41134380115567 FLOCK 4BE-31 1 60488U 24149W 26254.96025139 .00037041 00000+0 71763-3 0 9991 2 60488 97.3762 341.7181 0001306 330.6893 29.4284 15.47618695115782 FLOCK 4BE-20 1 60489U 24149X 26254.79944015 .00047828 00000+0 10674-2 0 9993 2 60489 97.3641 337.4058 0003318 277.0078 83.0792 15.43399713115545 FLOCK 4BE-23 1 60490U 24149Y 26255.18293794 .00021950 00000+0 55257-3 0 9995 2 60490 97.3735 338.1123 0002410 342.8774 17.2390 15.39931783115578 FLOCK 4BE-17 1 60492U 24149AA 26255.16860161 .00026203 00000+0 60682-3 0 9997 2 60492 97.3728 339.3517 0001684 316.5994 43.5120 15.42424831115653 FLOCK 4BE-22 1 60494U 24149AC 26255.00067521 .00030682 00000+0 67186-3 0 9993 2 60494 97.3692 339.5290 0002263 329.2402 30.8713 15.44064713115685 FLOCK 4BE-34 1 60495U 24149AD 26254.75978250 .00028147 00000+0 61743-3 0 9991 2 60495 97.3742 340.1616 0002488 345.7606 14.3571 15.44029903115670 FLOCK 4BE-32 1 60497U 24149AF 26254.99051105 .00031302 00000+0 65909-3 0 9995 2 60497 97.3676 340.0123 0002495 335.7575 24.3556 15.45219587115722 FLOCK 4BE-11 1 60501U 24149AK 26255.19892729 .00032221 00000+0 65809-3 0 9999 2 60501 97.3659 340.5340 0002491 327.1331 32.9764 15.46108082115786 FLOCK 4BE-24 1 60505U 24149AP 26255.04114424 .00036585 00000+0 73766-3 0 9994 2 60505 97.3677 340.6832 0002762 341.4085 18.7063 15.46457267115778 TANAGER-1 1 60507U 24149AR 26254.99856648 .00013145 00000+0 29079-3 0 9995 2 60507 97.2293 348.7661 0001021 29.0171 331.1134 15.43937619116430 FLOCK 4BE-29 1 60509U 24149AT 26255.20714617 .00017440 00000+0 32673-3 0 9997 2 60509 97.3785 342.6725 0002374 37.4587 322.6829 15.48737648115866 FLOCK 4BE-13 1 60512U 24149AW 26254.79638802 .00030442 00000+0 65955-3 0 9991 2 60512 97.3684 340.2253 0003071 328.3208 31.7855 15.44380178115725 FLOCK 4BE-27 1 60513U 24149AX 26254.75731970 .00007494 00000+0 21753-3 0 9997 2 60513 97.3783 336.7094 0003859 17.5483 342.5893 15.35789060115420 FLOCK 4BE-9 1 60514U 24149AY 26255.04345866 .00030358 00000+0 67678-3 0 9997 2 60514 97.3754 340.2938 0002222 10.6810 349.4485 15.43533739115700 FLOCK 4BE-6 1 60516U 24149BA 26255.21260029 .00024769 00000+0 58080-3 0 9991 2 60516 97.3749 339.6419 0002761 2.1933 357.9326 15.42059801115678 FLOCK 4BE-14 1 60517U 24149BB 26255.04164140 .00031279 00000+0 68986-3 0 9990 2 60517 97.3654 339.7030 0003513 353.7448 6.3756 15.43844208115717 FLOCK 4BE-1 1 60518U 24149BC 26255.02752281 .00033989 00000+0 70499-3 0 9990 2 60518 97.3745 341.2911 0003210 354.6190 5.5024 15.45643273115779 FLOCK 4BE-28 1 60519U 24149BD 26254.78612625 .00019937 00000+0 35957-3 0 9997 2 60519 97.3714 342.1801 0003009 4.9414 355.1866 15.49797020115833 FLOCK 4BE-5 1 60559U 24149CV 26255.20755389 .00030014 00000+0 68178-3 0 9994 2 60559 97.3806 340.1742 0002460 354.8304 5.2917 15.42976400115683 FLOCK 4BE-3 1 60561U 24149CX 26255.18328184 .00028028 00000+0 60627-3 0 9996 2 60561 97.3655 340.0695 0002843 346.6048 13.5124 15.44444909115759 FLOCK 4BE-19 1 60563U 24149CZ 26255.03802117 .00042351 00000+0 80062-3 0 9995 2 60563 97.3706 341.9653 0003765 346.2819 13.8329 15.48293029115847 FLOCK 4G-8 1 62613U 25009E 26254.77923671 .00010673 00000+0 35537-3 0 9997 2 62613 97.3962 336.4874 0004163 28.8000 331.3471 15.31301501092163 FLOCK 4G-13 1 62621U 25009N 26254.75288744 .00133604 00000+0 15942-2 0 9996 2 62621 97.3884 340.4668 0002599 286.9493 73.1479 15.60601301092426 FLOCK 4G-9 1 62622U 25009P 26254.67459341 .00006464 00000+0 22952-3 0 9994 2 62622 97.3917 335.0427 0005011 35.5425 324.6148 15.29372420092072 FLOCK 4G-7 1 62624U 25009R 26255.04011551 .00008124 00000+0 27533-3 0 9990 2 62624 97.3896 335.9340 0002929 43.0291 317.1179 15.30812516092183 FLOCK 4G-12 1 62625U 25009S 26255.16837073 .00006860 00000+0 23322-3 0 9996 2 62625 97.3982 336.6684 0004034 23.9279 336.2149 15.30768752092205 FLOCK 4G-11 1 62629U 25009W 26255.01720737 .00008429 00000+0 28421-3 0 9990 2 62629 97.3880 336.0107 0003081 41.8865 318.2611 15.30968453092193 PELICAN-2 1 62631U 25009Y 26254.81745715 .00006515 00000+0 16151-3 0 9994 2 62631 97.2047 344.5224 0000880 46.8255 313.3065 15.40719095092899 FLOCK 4G-26 1 62633U 25009AA 26255.02286315 .00007606 00000+0 25535-3 0 9994 2 62633 97.3974 336.7119 0003152 21.6755 338.4619 15.31142374092194 FLOCK 4G-28 1 62634U 25009AB 26255.18457117 .00006883 00000+0 19766-3 0 9997 2 62634 97.3993 340.1244 0002053 43.7076 316.4330 15.36167170092433 FLOCK 4G-24 1 62637U 25009AE 26254.76387898 .00007834 00000+0 26123-3 0 9993 2 62637 97.3987 336.7842 0002723 12.7130 347.4180 15.31355115092176 FLOCK 4G-3 1 62639U 25009AG 26255.03630211 .00007828 00000+0 26452-3 0 9994 2 62639 97.3984 336.7235 0002537 26.6320 333.5051 15.30922306092184 FLOCK 4G-27 1 62641U 25009AJ 26254.79779992 .00008079 00000+0 27381-3 0 9990 2 62641 97.3891 335.7547 0002350 40.2930 319.8485 15.30816325092148 FLOCK 4G-29 1 62642U 25009AK 26255.00957571 .00030291 00000+0 95123-3 0 9997 2 62642 97.3973 336.7252 0000935 337.7266 22.3935 15.32960079092185 FLOCK 4G-22 1 62645U 25009AN 26255.19450021 .00007856 00000+0 26639-3 0 9995 2 62645 97.3966 336.8517 0002146 29.7111 330.4251 15.30808597092221 FLOCK 4G-25 1 62646U 25009AP 26254.96366861 .00007906 00000+0 26652-3 0 9999 2 62646 97.3975 336.7266 0002080 42.7056 317.4346 15.30999071092196 FLOCK 4G-23 1 62647U 25009AQ 26254.95209270 .00041666 00000+0 10651-2 0 9991 2 62647 97.3880 336.9471 0000340 44.4245 315.7027 15.39331708092247 FLOCK 4G-34 1 62650U 25009AT 26255.17626398 .00006587 00000+0 22526-3 0 9992 2 62650 97.3925 336.3561 0002295 40.5183 319.6229 15.30601614092215 FLOCK 4G-21 1 62651U 25009AU 26255.17994774 .00031502 00000+0 87598-3 0 9994 2 62651 97.3945 337.7947 0001708 46.4627 313.6759 15.36789811092299 FLOCK 4G-31 1 62652U 25009AV 26254.81822609 .00007707 00000+0 26323-3 0 9991 2 62652 97.3928 335.9654 0002166 58.3497 301.7955 15.30582929092158 FLOCK 4G-4 1 62659U 25009BC 26255.03074448 .00032992 00000+0 94148-3 0 9997 2 62659 97.3896 336.3194 0002639 22.3158 337.8200 15.35968927149813 FLOCK 4G-6 1 62660U 25009BD 26255.18544191 .00007821 00000+0 26405-3 0 9996 2 62660 97.3897 336.1945 0003773 45.1433 315.0114 15.30947664149808 FLOCK 4G-2 1 62661U 25009BE 26255.03351301 .00008661 00000+0 28844-3 0 9992 2 62661 97.3966 336.7725 0004339 35.7993 324.3538 15.31356611149814 FLOCK 4G-5 1 62663U 25009BG 26255.00940794 .00006993 00000+0 23032-3 0 9991 2 62663 97.3988 337.2081 0003352 24.4120 335.7280 15.31791656092226 FLOCK 4G-1 1 62666U 25009BK 26255.02279764 .00008691 00000+0 29030-3 0 9999 2 62666 97.3977 336.7412 0004401 32.0687 328.0821 15.31259101092194 FLOCK 4G-14 1 62667U 25009BL 26255.20243443 .00007761 00000+0 26332-3 0 9994 2 62667 97.3983 336.6776 0004447 27.4613 332.6862 15.30790611092204 FLOCK 4G-10 1 62670U 25009BP 26254.75141625 .00008746 00000+0 29522-3 0 9994 2 62670 97.3882 335.4562 0004848 44.6076 315.5555 15.30915132149776 FLOCK 4G-36 1 62675U 25009BU 26254.81210242 .00008632 00000+0 29164-3 0 9994 2 62675 97.3975 336.2087 0004866 31.7322 328.4211 15.30890965092142 FLOCK 4G-15 1 62678U 25009BX 26254.74899779 .00008150 00000+0 27447-3 0 9994 2 62678 97.3971 336.3018 0004914 27.6505 332.4996 15.31013617149787 FLOCK 4G-30 1 62679U 25009BY 26255.19593873 .00034819 00000+0 92231-3 0 9995 2 62679 97.3866 336.6872 0002293 30.8671 329.2708 15.38274982149898 FLOCK 4G-18 1 62680U 25009BZ 26254.95710792 .00035288 00000+0 99889-3 0 9998 2 62680 97.3958 336.7480 0004306 32.7100 327.4410 15.36202768149838 FLOCK 4G-17 1 62681U 25009CA 26254.77031634 .00008247 00000+0 27687-3 0 9992 2 62681 97.3875 335.7320 0005004 42.6260 317.5369 15.31110130149796 FLOCK 4G-33 1 62685U 25009CE 26255.20100891 .00004151 00000+0 16234-3 0 9993 2 62685 97.3901 334.1050 0006059 37.8271 322.3392 15.26382264092073 PELICAN-3 1 65315U 25188A 26254.92828544 .00005959 00000+0 14626-3 0 9994 2 65315 97.1902 329.7787 0000891 51.1597 308.9729 15.41059875058678 PELICAN-4 1 65316U 25188B 26255.15965700 .00006680 00000+0 16364-3 0 9990 2 65316 97.1934 330.1299 0002693 115.8268 244.3257 15.41068686058706 PELICAN-5 1 66667U 25276B 26254.73575674 .00029735 00000+0 84973-3 0 9995 2 66667 97.3937 329.9356 0001758 117.5012 242.6411 15.35948444043785 PELICAN-6 1 66703U 25276AP 26255.18286828 .00014037 00000+0 41739-3 0 9998 2 66703 97.3330 329.8718 0002212 101.5806 258.5686 15.34853097043850 FLOCK 4H-1 1 66704U 25276AQ 26254.75784294 .00005223 00000+0 23565-3 0 9995 2 66704 97.4116 327.0944 0002798 52.3816 307.7673 15.21428324043599 FLOCK 4H-2 1 66705U 25276AR 26255.17987757 .00004796 00000+0 21439-3 0 9994 2 66705 97.4111 327.5833 0002303 64.5933 295.5541 15.21792318043667 FLOCK 4H-3 1 66706U 25276AS 26254.74437133 .00005335 00000+0 24460-3 0 9992 2 66706 97.4182 327.0534 0005309 69.9578 290.2228 15.20861257043574 FLOCK 4H-4 1 66707U 25276AT 26254.78794675 .00006541 00000+0 30067-3 0 9994 2 66707 97.4161 326.9324 0005982 70.4489 289.7392 15.20680980043579 FLOCK 4H-5 1 66708U 25276AU 26255.01136748 .00004776 00000+0 21548-3 0 9995 2 66708 97.4116 327.3682 0002052 76.4426 283.7038 15.21474305043635 FLOCK 4H-6 1 66709U 25276AV 26254.73903448 .00003028 00000+0 13886-3 0 9998 2 66709 97.4163 327.1594 0004108 52.5187 307.6422 15.21194186043584 FLOCK 4H-7 1 66710U 25276AW 26255.18952698 .00004692 00000+0 21448-3 0 9992 2 66710 97.4123 327.3092 0003935 89.7179 270.4508 15.21028450043646 FLOCK 4H-8 1 66711U 25276AX 26254.78135588 .00004791 00000+0 21819-3 0 9991 2 66711 97.4167 327.0976 0005019 76.5451 283.6344 15.21143237043583 FLOCK 4H-9 1 66712U 25276AY 26254.78314529 .00005031 00000+0 22688-3 0 9999 2 66712 97.4154 327.2143 0004302 55.7138 304.4505 15.21460626043599 FLOCK 4H-10 1 66713U 25276AZ 26255.16217109 .00005248 00000+0 24115-3 0 9996 2 66713 97.4129 327.2203 0005788 69.5992 290.5864 15.20785874043631 FLOCK 4H-12 1 66715U 25276BB 26254.76939014 .00005219 00000+0 23520-3 0 9996 2 66715 97.4126 327.1184 0002996 56.5905 303.5617 15.21470682043905 FLOCK 4H-13 1 66716U 25276BC 26254.73718139 .00004693 00000+0 21154-3 0 9993 2 66716 97.4160 327.2921 0001822 58.9822 301.1593 15.21518317043595 FLOCK 4H-14 1 66717U 25276BD 26254.74492933 .00006042 00000+0 26724-3 0 9994 2 66717 97.4143 327.3751 0001737 64.2196 295.9219 15.22050603042851 FLOCK 4H-15 1 66718U 25276BE 26255.13385567 .00016028 00000+0 71980-3 0 9992 2 66718 97.4155 327.2113 0004832 79.7583 280.4198 15.21234520043628 FLOCK 4H-16 1 66719U 25276BF 26255.16904002 .00004729 00000+0 21760-3 0 9993 2 66719 97.4171 327.3766 0005688 70.7305 289.4545 15.20792987043636 FLOCK 4H-18 1 66721U 25276BH 26255.17751588 .00004255 00000+0 19651-3 0 9996 2 66721 97.4114 327.1486 0005445 87.2802 272.9056 15.20722830043633 FLOCK 4H-19 1 66722U 25276BJ 26254.73769617 .00004405 00000+0 19690-3 0 9990 2 66722 97.4115 327.2797 0001842 44.0788 316.0594 15.21840309042899 FLOCK 4H-20 1 66723U 25276BK 26254.73190766 .00005317 00000+0 23526-3 0 9990 2 66723 97.4153 327.4277 0002925 33.7626 326.3796 15.22093721042859 FLOCK 4H-21 1 66724U 25276BL 26255.17334611 .00004709 00000+0 21110-3 0 9990 2 66724 97.4117 327.6243 0002714 37.1062 323.0361 15.21701782042914 FLOCK 4H-22 1 66725U 25276BM 26255.17166838 .00004872 00000+0 22151-3 0 9992 2 66725 97.4108 327.2812 0004232 89.1920 270.9800 15.21193941043641 FLOCK 4H-23 1 66726U 25276BN 26254.71717811 .00004579 00000+0 21140-3 0 9996 2 66726 97.4180 326.9302 0005722 65.6519 294.5313 15.20695468043562 FLOCK 4H-24 1 66727U 25276BP 26255.15800772 .00005310 00000+0 24368-3 0 9994 2 66727 97.4173 327.4003 0005503 76.9303 283.2547 15.20827989043639 FLOCK 4H-25 1 66728U 25276BQ 26254.73538919 .00004553 00000+0 20508-3 0 9999 2 66728 97.4133 327.1840 0001482 70.6890 289.4506 15.21559327042873 FLOCK 4H-26 1 66729U 25276BR 26255.13677483 .00005361 00000+0 24808-3 0 9990 2 66729 97.4128 327.1006 0006199 74.3328 285.8591 15.20536715043622 FLOCK 4H-27 1 66730U 25276BS 26254.64130914 .00005165 00000+0 23334-3 0 9995 2 66730 97.4107 326.9105 0001914 76.8473 283.2977 15.21393997043574 FLOCK 4H-29 1 66732U 25276BU 26254.78188480 .00004790 00000+0 22115-3 0 9992 2 66732 97.4109 326.7298 0004922 85.5395 274.6403 15.20669452043570 FLOCK 4H-30 1 66733U 25276BV 26255.16342345 .00005227 00000+0 24007-3 0 9996 2 66733 97.4168 327.3722 0005699 75.9108 284.2761 15.20811215043639 FLOCK 4H-31 1 66734U 25276BW 26254.73315718 .00005052 00000+0 23385-3 0 9997 2 66734 97.4106 326.6383 0005309 83.5475 276.6364 15.20555111043563 FLOCK 4H-32 1 66735U 25276BX 26255.17706205 .00004423 00000+0 20444-3 0 9996 2 66735 97.4161 327.3245 0005983 72.1131 288.0756 15.20672618043633 FLOCK 4H-33 1 66736U 25276BY 26255.15766868 .00005322 00000+0 23755-3 0 9993 2 66736 97.4157 327.7953 0002357 34.2353 325.9035 15.21790329043661 FLOCK 4H-34 1 66737U 25276BZ 26255.15757336 .00005051 00000+0 22782-3 0 9992 2 66737 97.4174 327.7018 0002796 39.7084 320.4356 15.21456928042907 FLOCK 4H-35 1 66738U 25276CA 26254.93192899 .00004770 00000+0 21470-3 0 9995 2 66738 97.4133 327.3941 0001976 36.6497 323.4874 15.21556411042914 FLOCK 4H-36 1 66739U 25276CB 26255.17571807 .00004691 00000+0 21227-3 0 9995 2 66739 97.4182 327.7098 0003216 45.9844 314.1656 15.21386489043657 EDDA-1 1 69017U 26100AP 26255.14715571 .00002201 00000+0 90841-4 0 9993 2 69017 97.3532 151.6266 0002939 119.4097 240.7435 15.25074482020055 PELICAN-8 1 69018U 26100AQ 26255.16854235 .00014923 00000+0 56555-3 0 9994 2 69018 97.3206 151.5591 0003433 115.6572 244.5022 15.26980171020078 PELICAN-9 1 69019U 26100AR 26255.16768911 .00014735 00000+0 56179-3 0 9993 2 69019 97.2688 151.1292 0003626 108.6596 251.5037 15.26781366020055 PELICAN-11 1 69871U 26156C 26252.63165818 .00000163 00000+0 20426-4 0 9993 2 69871 97.7270 152.0727 0003836 9.9258 350.2038 14.94221909009407